TimeAWST,TemperatureF,Dew PointF,Humidity,Sea Level PressureIn,VisibilityMPH,Wind Direction,Wind SpeedMPH,Gust SpeedMPH,PrecipitationIn,Events,Conditions,WindDirDegrees,DateUTC
12:00 AM,73,59,52,29.95,,NNE,5.8,,,,,30,2013-09-01 16:00:00
12:00 AM,73.4,59.0,61,29.95,-9999.0,NNE,5.8,-,N/A,,Unknown,30,2013-09-01 16:00:00
1:00 AM,69.8,59.0,68,29.92,-9999.0,WNW,4.6,-,N/A,,Unknown,290,2013-09-01 17:00:00
2:00 AM,66.2,55.4,68,29.92,-9999.0,Calm,Calm,-,N/A,,Unknown,0,2013-09-01 18:00:00
3:00 AM,68.0,59.0,73,29.92,-9999.0,NE,6.9,-,N/A,,Unknown,40,2013-09-01 19:00:00
4:00 AM,66.2,60.8,83,29.92,-9999.0,North,5.8,-,N/A,,Unknown,10,2013-09-01 20:00:00
5:00 AM,64.4,57.2,77,29.95,-9999.0,North,4.6,-,N/A,,Unknown,10,2013-09-01 21:00:00
6:00 AM,64.4,60.8,88,29.98,-9999.0,NE,5.8,-,N/A,,Unknown,40,2013-09-01 22:00:00
7:00 AM,73.4,64.4,73,29.98,-9999.0,North,4.6,-,N/A,,Unknown,350,2013-09-01 23:00:00
8:00 AM,78.8,60.8,54,29.98,-9999.0,NW,2.3,-,N/A,,Unknown,310,2013-09-02 00:00:00
9:00 AM,86.0,59.0,40,30.01,-9999.0,NE,4.6,-,N/A,,Unknown,50,2013-09-02 01:00:00
10:00 AM,93.2,59.0,32,29.98,-9999.0,North,4.6,-,N/A,,Unknown,350,2013-09-02 02:00:00
11:00 AM,96.8,51.8,22,29.95,-9999.0,NE,13.8,-,N/A,,Unknown,40,2013-09-02 03:00:00
12:00 PM,99,50,11,29.90,,NE,13.8,,,,,40,2013-09-02 04:00:00
12:00 PM,98.6,50.0,19,29.89,-9999.0,NE,13.8,-,N/A,,Unknown,40,2013-09-02 04:00:00
1:00 PM,102.2,51.8,18,29.86,-9999.0,East,9.2,-,N/A,,Unknown,80,2013-09-02 05:00:00
2:00 PM,102.2,44.6,14,29.83,-9999.0,ENE,10.4,24.2,N/A,,Unknown,60,2013-09-02 06:00:00
3:00 PM,104.0,33.8,9,29.83,-9999.0,NE,11.5,-,N/A,,Unknown,50,2013-09-02 07:00:00
4:00 PM,102.2,35.6,10,29.83,-9999.0,NE,9.2,-,N/A,,Unknown,40,2013-09-02 08:00:00
5:00 PM,100.4,50.0,18,29.83,-9999.0,NE,6.9,-,N/A,,Unknown,40,2013-09-02 09:00:00
6:00 PM,92,55,19,29.86,,NW,8.1,,,,,320,2013-09-02 10:00:00
6:00 PM,91.4,55.4,29,29.86,-9999.0,NW,8.1,-,N/A,,Unknown,320,2013-09-02 10:00:00
7:00 PM,84.2,55.4,37,29.89,-9999.0,NNW,4.6,-,N/A,,Unknown,340,2013-09-02 11:00:00
8:00 PM,82.4,57.2,42,29.92,-9999.0,North,5.8,-,N/A,,Unknown,350,2013-09-02 12:00:00
9:00 PM,76,55,38,29.96,,North,5.8,,,,,0,2013-09-02 13:00:00
9:00 PM,75.2,55.4,50,29.95,-9999.0,North,5.8,-,N/A,,Unknown,360,2013-09-02 13:00:00
10:00 PM,80.6,59.0,48,29.95,-9999.0,NNW,4.6,-,N/A,,Unknown,340,2013-09-02 14:00:00
11:00 PM,75.2,59.0,57,29.95,-9999.0,North,5.8,-,N/A,,Unknown,360,2013-09-02 15:00:00